This demonstration page uses our WeatherBlox Daily Observations layout. Learn more.

Left ArrowRight Arrow

Hourly Observations for August 10, 2021

Temp ( °F °C ) Dew Point ( °F °C ) Humidity (%) Winds ( mph kmh ) Pressure ( in mb ) Visibility ( mi km ) Precip ( " mm )
12:53 am 00:53 Clear with Smoke 76 24.4 52 11.1 43 43 Calm 29.84 1011 10 16 0.00 0.00
1:53 am 01:53 Clear with Smoke 75 23.9 51 10.6 43 43 N 3 6 29.84 1011 10 16 0.00 0.00
2:53 am 02:53 Clear with Smoke 72 22.2 51 10.6 48 48 Calm 29.84 1011 10 16 0.00 0.00
3:53 am 03:53 Clear with Smoke 71 21.7 50 10 47 47 Calm 29.85 1011 10 16 0.00 0.00
4:53 am 04:53 Clear with Smoke 70 21.1 49 9.4 47 47 Calm 29.86 1011 10 16 0.00 0.00
5:53 am 05:53 Partly Cloudy with Smoke 69 20.6 48 8.9 47 47 Calm 29.87 1012 10 16 0.00 0.00
6:53 am 06:53 Sunny with Smoke 69 20.6 51 10.6 53 53 Calm 29.88 1012 10 16 0.00 0.00
7:53 am 07:53 Sunny with Smoke 73 22.8 52 11.1 48 48 Calm 29.89 1012 9 14 0.00 0.00
8:53 am 08:53 Sunny with Smoke 77 25 52 11.1 42 42 Calm 29.89 1012 9 14 0.00 0.00
9:53 am 09:53 Sunny with Smoke 83 28.3 52 11.1 34 34 Calm 29.88 1012 8 13 0.00 0.00
10:53 am 10:53 Sunny with Smoke 88 31.1 47 8.3 24 24 VRB 3 6 29.88 1012 7 11 0.00 0.00
11:53 am 11:53 Hazy 93 33.9 46 7.8 20 20 Calm 29.87 1012 5 8 0.00 0.00
12:53 pm 12:53 Hazy 96 35.6 45 7.2 17 17 Calm 29.85 1011 6 10 0.00 0.00
1:53 pm 13:53 Hazy 98 36.7 48 8.9 18 18 VRB 5 7 29.83 1010 6 10 0.00 0.00
2:53 pm 14:53 Hazy 100 37.8 47 8.3 16 16 Calm 29.81 1010 6 10 0.00 0.00
3:53 pm 15:53 Hazy 103 39.4 44 6.7 13 13 VRB 7 11 29.79 1009 6 10 0.00 0.00
4:53 pm 16:53 Hazy 103 39.4 43 6.1 13 13 SSE 5 7 29.78 1008 6 10 0.00 0.00
5:53 pm 17:53 Mostly Cloudy with Haze 104 40 44 6.7 13 13 SE 5 7 29.77 1008 5 8 0.00 0.00
6:53 pm 18:53 Mostly Cloudy with Haze 102 38.9 43 6.1 13 13 S 9 15 29.76 1008 6 10 0.00 0.00
7:53 pm 19:53 Cloudy with Smoke 96 35.6 52 11.1 23 23 S 7 11 29.77 1008 8 13 0.00 0.00
8:53 pm 20:53 Cloudy with Smoke 91 32.8 53 11.7 27 27 SSE 5 7 29.80 1009 10 16 0.00 0.00
9:53 pm 21:53 Clear with Smoke 87 30.6 54 12.2 32 32 E 3 6 29.83 1010 10 16 0.00 0.00
10:53 pm 22:53 Clear with Smoke 84 28.9 55 12.8 37 37 NE 5 7 29.85 1011 10 16 0.00 0.00
11:53 pm 23:53 Clear with Smoke 83 28.3 56 13.3 40 40 NNE 6 9 29.87 1012 10 16 0.00 0.00

Powered by AerisWeather